Regional Weather Roundup
Issued by NWS

Home | Current Version | Previous Version | Graphics & Text | Print | Product List | Glossary On
Versions: 1 2 3 4 5 6 7 8 9 10 11 12 13 14 15 16 17 18 19 20 21 22 23 24 25 26 27 28 29 30 31 32 33 34 35 36 37 38 39 40 41 42 43 44 45 46 47 48 49 50
000
ASUS43 KMPX 111001
RWRMN
WEATHER ROUNDUP FOR MINNESOTA
NATIONAL WEATHER SERVICE TWIN CITIES/CHANHASSEN MN
500 AM CDT FRI JUL 11 2014


NOTE: "FAIR" INDICATES FEW OR NO CLOUDS BELOW 12,000 FEET WITH NO
SIGNIFICANT WEATHER AND/OR OBSTRUCTIONS TO VISIBILITY. N/A MEANS
CURRENT SKY AND/OR WEATHER CONDITIONS ARE NOT AVAILABLE.

MNZ060>063-068>070-111100-
   Twin Cities Metro

CITY           SKY/WX    TMP DP  RH WIND       PRES   REMARKS
TWIN CITIES    CLOUDY    73  59  61 S20G31    29.96F
ST PAUL        CLOUDY    71  60  68 S15       29.97F
CRYSTAL        CLOUDY    74  59  59 S18G31    29.93F
BLAINE         CLOUDY    73  61  64 S18       29.94F
LAKEVILLE      CLOUDY    68  59  73 S15       29.97F
EDEN PRAIRIE   CLOUDY    72  60  66 S22G31    29.94F
SOUTH ST PAUL  CLOUDY    71  59  64 S10G17    29.97F
LAKE ELMO      CLOUDY    70  61  73 S16       29.99F
$$
MNZ001>005-007-008-013>017-022>024-027-028-111100-
   Northwest Minnesota

CITY           SKY/WX    TMP DP  RH WIND       PRES   REMARKS
BEMIDJI        CLOUDY    66  65  96 SE5       29.86R
HALLOCK        PTCLDY    63  61  94 S6        29.78S
ROSEAU         PTCLDY    63  57  82 S5        29.81S
WARROAD        CLOUDY    64  61  88 S5        29.82S
THIEF RVR FALL   N/A    N/A N/A N/A MISG        N/A
CROOKSTON      CLEAR     64  63  94 SW3       29.81R FOG
FOSSTON        CLEAR     66  63  88 SE7       29.83S
DETROIT LAKES  MOCLDY    68  66  94 SE8       29.86S
MOORHEAD       MOCLDY    70  70 100 SE5       29.80S
PARK RAPIDS    CLOUDY    65  64  97 S13       29.87S
$$
MNZ006-009>011-018-025>026-111100-
   North Central Minnesota

CITY           SKY/WX    TMP DP  RH WIND       PRES   REMARKS
BAUDETTE       PTCLDY    65  63  93 VRB3      29.84F
FLAG ISLAND    MOCLDY    68  64  88 S12       29.80S
INTL FALLS     CLOUDY    64  63  96 SE5       29.86S
BIG FORK       MOCLDY    66  64  94 S6        29.89S
LONGVILLE      CLOUDY    64  64 100 SE9       29.88S
GRAND RAPIDS   CLOUDY    64  61  88 S14G20    29.90S
CRANE LAKE     CLOUDY    63  63 100 S3        29.92S
ORR            DRIZZLE   64  61  88 S6        29.89S
COOK           RAIN      64  63  94 S5        29.93S
$$
MNZ012-019>021-037-111100-
   Northeast Minnesota

CITY           SKY/WX    TMP DP  RH WIND       PRES   REMARKS
DULUTH         RAIN      63  59  87 S16       29.95F FOG
ELY            LGT RAIN  64  61  88 S5        29.95S
HIBBING        LGT RAIN  65  62  90 S3        29.93S
EVELETH        CLOUDY    63  61  94 S6        29.95S
DULUTH HARBOR  RAIN      54  52  94 CALM      29.99R
TWO HARBORS    DRIZZLE   57  54  88 CALM      29.96S
SILVER BAY     CLOUDY    57  57 100 CALM      29.96S
GRAND MARAIS     N/A     50  45  83 E5        29.99R
G MARAIS ARPRT CLOUDY    59  52  77 CALM      30.01R
$$
MNZ029>031-032-039>041-046>048-054>057-064-111100-
   West Central Minnesota

CITY           SKY/WX    TMP DP  RH WIND       PRES   REMARKS
FERGUS FALLS   CLOUDY    72  66  83 SE7       29.83R
WHEATON        CLEAR     72  64  78 SW8       29.83R
MORRIS         PTCLDY    72  66  83 S6        29.83S
ALEXANDRIA     CLOUDY    70  66  87 S13G21    29.88R
ELBOW LAKE     CLOUDY    70  66  88 S8        29.84R
WADENA         CLOUDY    66  64  94 SE9       29.87S
GLENWOOD       PTCLDY    70  66  88 S13       29.89R
APPLETON       CLEAR     73  66  78 S8        29.84R
BENSON         PTCLDY    70  66  88 SW12      29.85S
ORTONVILLE     PTCLDY    73  64  73 S5        29.84R
MADISON        CLEAR     75  66  73 SW14      29.85R
WILLMAR        FAIR      70  63  78 S5        29.89S
$$
MNZ033>034-036-042>043-049>051-058-059-111100-
   Central Minnesota

CITY           SKY/WX    TMP DP  RH WIND       PRES   REMARKS
ST CLOUD       TSTM      69  63  81 S21G28    29.89R
SAUK CENTRE    LGT RAIN  69  64  82 S18G26    29.89R
PAYNESVILLE    HVY RAIN  65  62  90 SE12G24   29.89S
AITKIN         HVY RAIN  66  61  82 SE13      29.88F
PINE RIVER     CLOUDY    64  64 100 S8        29.92S
BRAINERD       LGT RAIN  70  64  81 S8        29.90F
STAPLES        CLOUDY    63  63 100 SE8       29.89S
LONG PRAIRIE   LGT RAIN  68  63  83 N5        29.91R
LITTLE FALLS   HVY RAIN  64  61  88 CALM      29.94R
LITCHFIELD     RAIN      68  66  94 S5        29.91F
BUFFALO        DRIZZLE   71  60  68 S15G23    29.94S
MAPLE LAKE     LGT RAIN  69  64  84 S12G20    29.93R
$$
MNZ037-044-045-052-053-111100-
   East Central Minnesota

CITY           SKY/WX    TMP DP  RH WIND       PRES   REMARKS
PRINCETON      TSTM      70  63  78 S13G22    29.93R
MORA           RAIN      63  59  88 SE3       29.95R
CAMBRIDGE      CLOUDY    75  59  57 S13G20    29.92S
RUSH CITY      LGT RAIN  66  61  84 SE5       29.95S
MOOSE LAKE     TSTM      64  61  88 S7        29.92F
HINCKLEY       RAIN      64  63  94 SE9       29.95R
CLOQUET        HVY RAIN  63  61  94 SE7       29.94F
MCGREGOR       CLOUDY    64  63  94 SE13      29.92F
$$
MNZ071>073-080-081-089-090-097-098-111100-
   Southwest Minnesota

CITY           SKY/WX    TMP DP  RH WIND       PRES   REMARKS
MONTEVIDEO     PTCLDY    72  66  83 SW12      29.87R
GRANITE FALLS  PTCLDY    70  65  84 S13       29.89S
CANBY          PTCLDY    73  66  80 SW18G26   29.85S
MARSHALL       MOCLDY    72  64  78 SW22G32   29.86S
REDWOOD FALLS  CLOUDY    69  66  90 S18G26    29.89F
OLIVIA         MOCLDY    70  64  83 S12G21    29.89S
PIPESTONE      CLOUDY    70  66  88 SW21      29.93R
WINDOM         DRIZZLE   68  63  83 S15G21    29.94F
WORTHINGTON    CLOUDY    68  64  88 S21G28    29.94F
JACKSON        LGT RAIN  66  61  82 S14G20    29.99F
TRACY          CLOUDY    70  67  89 S22G31    29.88F
SLAYTON        CLOUDY    68  66  92 S17G25    29.92R
$$
MNZ065>067-074>077-082>085-091>093-111100-
   South Central Minnesota

CITY           SKY/WX    TMP DP  RH WIND       PRES   REMARKS
MANKATO        MOCLDY    70  57  64 S17G23    29.98F
NEW ULM        LGT RAIN  68  64  88 S16       29.93F
ST JAMES       RAIN      68  63  83 S15       29.98S
FAIRMONT       CLOUDY    68  57  68 S14       30.00F
GLENCOE        RAIN      70  60  71 S12G21    29.93F
FARIBAULT      CLOUDY    72  57  60 S10       30.01F
OWATONNA       CLOUDY    70  59  68 S16       30.03F
WASECA         CLOUDY    68  55  64 S15G22    30.04F
ALBERT LEA     CLOUDY    66  59  77 S12G17    30.06R
$$
MNZ078>079-086>088-094>096-111100-
   Southeast Minnesota

CITY           SKY/WX    TMP DP  RH WIND       PRES   REMARKS
ROCHESTER      LGT RAIN  65  58  78 S15       30.09R
RED WING       CLOUDY    70  61  73 S8        30.02R
STANTON        CLOUDY    69  59  71 S9        30.00S
DODGE CENTER   CLOUDY    66  59  77 S15G21    30.06S
WINONA         MOCLDY    70  57  64 SW3       30.07R
AUSTIN         CLOUDY    68  55  64 S16G22    30.08R
PRESTON        LGT RAIN  65  59  79 S13       30.10R
$$
ABBREVIATIONS USED IN REMARKS
   TC - TEMPERATURES IN CELSIUS
  WCI - WIND CHILL INDEX
   HX - HEAT INDEX
  VSB - VISIBILITY
$$


USA.gov is the U.S. government's official web portal to all federal, state and local government web resources and services.